Skip Page Navigation
NASA JPL Caltech
NASA Logo - Jet Propulsion Laboratory + View the NASA Portal
+ Center for Near-Earth Object Studies
JPL Home Earth Solar System Stars & Galaxies Technology
JPL Solar System Dynamics
BODIES ORBITS EPHEMERIDES TOOLS PHYSICAL DATA DISCOVERY FAQ SITE MAP
JPL Small-Body Database Browser
Search: [ help ]  
3283 Skorina (1979 QA10)
Classification: Main-belt Asteroid          SPK-ID: 2003283
Ephemeris | Orbit Diagram | Orbital Elements | Mission Design | Physical Parameters | Discovery Circumstances ]

[ show orbit diagram ]
Orbital Elements at Epoch 2459200.5 (2020-Dec-17.0) TDB
Reference: JPL 41 (heliocentric ecliptic J2000)
 Element Value Uncertainty (1-sigma)   Units 
e .09997072674652617 1.9621e-08  
a 2.396479824301725 5.7267e-09 au
q 2.156901994632895 4.7705e-08 au
i 6.896856229211244 5.5535e-07 deg
node 356.5870144801633 6.5391e-06 deg
peri 352.565072664809 9.6869e-06 deg
M 52.31727253481102 4.8551e-06 deg
tp 2459003.574622595651
(2020-Jun-03.07462260)
1.8195e-05 TDB
period 1355.061768909961
3.71
4.8571e-06
1.33e-08
d
yr
n .2656705459925943 9.5228e-10 deg/d
Q 2.636057653970556 6.2992e-09 au
  Orbit Determination Parameters
   # obs. used (total)      3326  
   data-arc span      24636 days (67.45 yr)  
   first obs. used      1953-10-09  
   last obs. used      2021-03-22  
   planetary ephem.      DE441  
   SB-pert. ephem.      SB441-N16  
   condition code      0  
   norm. resid. RMS      .37396  
   source      ORB  
   producer      Otto Matic  
   solution date      2021-May-03 20:52:05  

Additional Information
 Earth MOID = 1.14911 au 
 Jupiter MOID = 2.74892 au 
 T_jup = 3.512 
[ show covariance matrix ]

Ephemeris | Orbit Diagram | Orbital Elements | Mission Design | Physical Parameters | Discovery Circumstances ]

Physical Parameter Table
Parameter Symbol Value Units Sigma Reference Notes
absolute magnitude H 12.82   n/a MPCxxxxx  
diameter diameter 10.623 km 0.072 urn:nasa:pds:neowise_diameters_albedos::2.0[mainbelt] (http://adsabs.harvard.edu/abs/2014ApJ...791..121M)  
rotation period rot_per 147.122 h n/a LCDB (Rev. 2020-October); Warner et al., 2009 Result based on less than full coverage, so that the period may be wrong by 30 percent or so.
Published Reference List:
[Pal, A.; Szakats, R.; Kiss, C.; Bodi, A.; et al. (2019) Ap. J. Supl. Ser. 247, id.26.]
geometric albedo albedo 0.076   0.010 urn:nasa:pds:neowise_diameters_albedos::2.0[mainbelt] (http://adsabs.harvard.edu/abs/2012ApJ...759L...8M)  

3283 Skorina (1979 QA10)          Discovered 1979-Aug-27 by Chernykh, N. at Nauchnyj
Reference: DISCOVERY.DBLast Updated: 2003-08-29

Alternate Designations
 1979 QA10 = 1953 TW1 = 1957 WK = 1959 ED = 1973 AM2 = 1977 AJ1 
Ephemeris | Orbit Diagram | Orbital Elements | Mission Design | Physical Parameters | Discovery Circumstances ]
ABOUT SSD CREDITS/AWARDS PRIVACY/COPYRIGHT GLOSSARY LINKS
FirstGov 2021-Jun-23 00:43 UT
(server date/time)  
NASA Home Page
Site Manager:   Ryan S. Park
Webmaster  Alan B. Chamberlin